Vertical_Velocity
-1 -1 -1 -1 -0 -0 -0 -0 0 0 -0 -0 -0 -0 -0 -1 -1 -1 -1 0 0 0 0 -1 -1 -0 -0 -0 -0 0 -0 0 0 0 -0 -0 -0 -0 -0 -0 -0 -0 -0 -1 -1 -1 -1 -2 -2 -1 2 0 -0 -0 0 0 0 -0 -0 -0 0 -0 -1 -1 -0 0 -0 -0 -0 -0 -0 -0 -0 -0 -1 -1 -1 -1 -2 -2 -2 -2 -2 -2 -2 -3 -3 0 2 2 2 2 1 0 -1 -1 -1 -1 -2 -2 -1 0 -0
-1 -1 -1 -1 -1 -1 -0 -0 -0 -0 -0 -0 -0 -0 0 -0 -1 -1 -1 -0 0 1 1 -0 -0 -0 -0 -0 0 0 0 0 0 0 1 1 0 -0 -0 -0 -1 -1 -1 -1 -1 -1 -1 -2 -2 -1 1 0 0 0 0 0 0 0 0 1 0 -0 -1 -1 -0 0 -0 -0 -0 -0 0 0 -0 -0 -0 -1 -1 -1 -1 -1 -1 -1 -2 -2 -3 -3 -2 4 7 7 6 5 3 2 1 0 0 0 -0 -1 -1 -1 0
-1 -1 -0 -0 -1 -1 -0 0 0 0 -0 0 0 0 0 -0 -0 -1 -2 -1 -1 -0 -1 -0 -0 -0 -0 0 1 1 0 0 -0 0 1 1 0 -0 -1 -1 -1 -1 -1 -1 -1 -1 -1 -1 -1 -0 1 1 1 1 0 0 0 1 1 0 -0 -1 -2 -1 -0 0 -0 -0 -0 0 0 0 0 -0 -1 -1 -1 -1 -1 -1 -1 -1 -1 -1 -2 -2 -3 0 2 3 5 6 7 5 1 2 2 1 2 1 0 1 3
-1 -1 -0 -0 -1 -1 -0 0 0 0 0 0 0 1 0 0 -0 -1 -2 -2 -1 -1 -1 -0 0 0 0 0 0 0 -0 -0 -0 -0 -0 -0 -0 -0 -1 -1 -1 -1 -1 -1 -1 -1 -1 -0 -0 0 2 1 1 1 0 1 1 1 0 -0 -1 -1 -1 -0 0 1 1 0 0 0 0 0 0 -0 -1 -1 -1 -2 -2 -2 -1 -1 -1 -1 -1 -1 -2 -1 -1 -1 -2 3 5 4 -0 4 5 5 3 2 2 2 2
-1 -1 -1 -0 -0 -0 -0 -0 -0 -0 0 0 0 0 0 0 -0 -1 -1 -1 -1 -1 -0 -0 -0 -0 0 0 0 -0 -1 -1 -1 -1 -1 -1 -1 -1 -1 -1 -1 -1 -1 -1 -0 -0 -2 -1 1 2 1 2 2 2 1 1 1 1 1 -0 -1 -2 -1 -0 0 1 2 1 1 0 1 -0 -1 -1 -1 -0 -0 -1 -1 -1 -1 -2 -2 -1 -1 -1 -1 -1 -1 -1 -2 -1 -1 -3 -4 -0 1 2 4 2 2 1 -2
-1 -1 -1 -0 -0 -0 -1 -0 -0 -0 -0 0 0 0 -0 -0 -0 -0 -0 -1 -0 -0 -1 -1 -0 -0 -0 -0 -0 -1 -1 -0 -1 -1 -1 -1 -1 -1 -1 -1 -1 -1 -0 -0 0 0 0 -0 2 4 0 2 2 2 1 1 1 1 1 0 -1 -2 -1 -1 -0 1 1 1 0 -0 -0 -1 -1 -1 -1 -0 0 1 0 1 3 3 -0 -1 -1 -2 -2 -1 -0 0 -0 -1 -2 -3 -4 -3 -1 -1 -1 -2 -3 -4 -3
-1 -0 0 0 0 -0 -0 -1 -1 -1 -1 -0 -0 -0 -0 -0 -0 -0 -0 -0 -0 -1 -1 -1 -1 -1 -1 -1 -0 -0 -1 1 0 -1 -1 -1 -1 -1 -1 -1 -0 0 0 0 0 0 -0 -1 1 2 1 2 2 2 1 1 1 1 1 -0 -1 -2 -1 -1 -0 -0 0 0 -0 -0 -1 -1 -0 -0 -1 -0 1 1 -2 -1 -1 -1 2 2 3 3 -1 -1 -1 -1 0 -1 -1 -2 -1 2 1 -0 1 1 2 1 -3
-0 -0 0 0 0 0 -0 -0 -1 -1 -1 -1 -0 0 -0 -0 -0 -0 -0 -0 -0 -0 -1 -1 -1 -1 -1 -1 -1 -0 -1 -2 -2 -1 -1 -1 -1 -0 0 -0 0 0 0 0 0 -0 -0 -0 -0 -0 1 1 1 1 0 1 1 1 2 -0 -1 -2 -1 -1 -1 -1 -1 -1 -1 -1 -0 -1 -1 -1 -1 1 2 -0 -3 -2 -2 -2 -1 -0 1 3 3 -0 -1 -1 -0 -0 -0 -1 -1 4 8 10 8 6 6 5 -1
-0 -0 0 0 0 0 -0 -1 -1 -1 -1 -0 -0 -0 -0 -0 -0 -0 -1 -1 -1 -1 -1 -1 -1 -1 -1 -2 -2 -2 -1 -1 -2 -1 -1 -0 -0 -0 -0 -0 -0 -0 -0 -0 -0 -0 -1 -1 -0 0 1 1 -0 -0 -1 2 2 1 1 -1 -1 -1 -2 -2 -1 -1 -1 -1 -1 -1 -1 -1 -1 -2 -1 1 -0 -2 -2 1 2 3 2 1 0 0 0 1 1 1 1 0 1 2 -0 -0 2 4 4 4 5 5 1
-0 -0 -0 0 0 -0 -0 -1 -1 -1 -1 -1 -1 -1 -0 -0 -1 -1 -1 -1 -1 -1 -1 -1 -1 -2 -2 -2 -2 -1 -1 -1 -1 -1 -1 -1 -1 -1 -1 -1 -1 -0 -0 -0 -0 -1 -1 -1 -0 0 -0 -0 -1 -1 -1 0 0 0 0 -1 -1 -1 -2 -2 -2 -2 -1 -1 -1 -1 -1 -1 -1 -1 -2 -1 -1 -0 3 4 3 0 1 0 0 2 4 4 3 3 7 5 2 1 1 -2 -2 -1 -0 1 0 -1 1
-0 -0 -0 -0 -0 -1 -1 -1 -1 -1 -1 -1 -1 -1 -1 -1 -1 -1 -1 -1 -1 -1 -1 -0 -1 -2 -1 -1 -1 -1 -1 -1 -1 -1 -1 -1 -1 -1 -1 -1 -1 -0 -0 -0 -1 -1 -1 -1 -1 -0 -0 -1 -1 -1 -1 -1 -0 -0 -0 -1 -1 -1 -1 -2 -2 -2 -2 -1 -1 -1 -1 -1 -1 -1 -2 -2 0 4 5 4 4 5 3 2 4 7 7 4 4 7 12 8 6 5 3 3 3 5 8 7 2 -1 -1
-0 -0 -0 -1 -1 -1 -1 -1 -1 -1 -1 -1 -1 -1 -2 -2 -1 -1 -1 -1 -1 -1 -2 -1 -1 -1 -1 -1 -1 -1 -1 -1 -1 -1 -1 -1 -1 -1 -1 -1 -1 -1 -1 -1 -1 -1 -1 -1 -1 -0 0 -0 -0 -1 -0 -0 -0 -0 -0 -1 -1 -1 -1 -1 -2 -2 -2 -2 -1 -1 -1 0 -0 -1 -3 -1 2 4 -0 -2 -3 -2 -1 1 1 1 2 1 0 -1 -4 -1 -0 1 3 3 3 4 8 10 9 6 1
-1 -1 -1 -1 -1 -1 -1 -1 -1 -1 -0 -0 -1 -1 -1 -1 -1 -1 -1 -1 -1 -1 -1 -1 -1 -1 -1 -1 -0 -0 -0 -0 -0 -0 -0 -0 -0 -1 -1 -1 -1 -1 -1 -1 -1 -1 -1 -0 0 0 1 0 -0 -0 -0 0 0 -0 -0 -1 -1 -1 -0 -1 -1 -1 -2 -2 -1 -1 -1 -2 -2 -2 -0 1 1 -1 -1 -3 -4 -3 -1 2 2 1 -0 -0 -0 -1 -3 -2 -0 2 3 2 1 0 -1 0 1 2 2
-1 -1 -1 -1 -1 -1 -1 -1 -1 -1 -0 -0 -0 -0 -1 -1 -1 -1 -1 -2 -1 -1 -1 -1 -1 -0 -0 -0 -0 -0 -0 -0 -0 -0 -0 -0 -0 -0 -1 -1 -1 -1 -1 -1 -1 -0 -0 0 1 0 0 0 0 -0 -0 0 0 -0 -0 -1 -1 -0 -0 -0 -0 -0 -0 -0 -1 -1 -1 -2 -2 -2 0 5 4 1 0 -1 -1 -1 -0 1 1 0 -0 -1 -1 -0 -0 1 4 6 3 4 4 4 3 1 1 1 0
-1 -1 -1 -1 -1 -1 -1 -1 -1 -1 -1 -0 -0 -0 -0 -0 -1 -1 -1 -1 -1 -1 -1 -0 -0 -0 -0 0 0 -0 -0 -0 -0 -0 -0 -0 -1 -1 -1 -1 -1 -1 -1 -1 -0 0 0 0 0 -0 -0 0 0 0 -0 0 -0 -0 -1 -1 -1 -0 -0 -0 -0 0 0 0 0 -0 -1 -1 -1 -1 -2 0 -0 -1 0 0 0 -0 0 1 1 1 1 1 0 0 -0 -0 -0 -0 -1 1 2 2 1 0 1 2 2
-1 -1 -1 -0 -0 -0 -1 -1 -1 -1 -1 -0 0 0 -0 -0 -1 -1 -1 -1 -1 -1 -0 -0 0 1 1 0 0 -0 -0 -0 -0 -0 -0 -1 -1 -1 -1 -1 -1 -1 -1 -0 0 1 1 0 -0 -0 -0 -0 -0 -0 -0 -0 -0 -1 -1 -1 -1 -1 -0 -0 -0 -0 -0 -0 -0 -0 -0 -1 -1 -2 -2 -2 -2 -2 -1 -1 -1 -1 0 -0 -0 -1 -2 -1 -0 1 1 -1 -1 -2 -2 -0 -0 -1 -1 -1 -0 1 2
-1 -0 -0 -0 -0 -0 -1 -1 -1 -1 -0 -0 0 -0 -0 -1 -1 -1 -1 -1 -0 -0 0 1 1 1 1 1 0 -0 -0 -1 -1 -1 -1 -1 -1 -1 -1 -1 -1 -0 -0 -0 0 1 1 0 -0 -0 -0 -0 -0 -0 -0 -1 -1 -1 -1 -1 -1 -1 -1 -1 -1 -1 -1 -1 -1 -1 -1 -1 -1 -2 -2 -2 -2 -2 -2 -2 -2 -2 -1 -0 -0 -1 -3 -3 -2 -1 0 -1 -1 -1 -1 -1 -0 -1 -1 -1 -1 -1 -1
-0 -0 -0 0 -0 -0 -0 -1 -1 -0 -0 -0 -0 -0 -1 -1 -1 -1 -0 -0 -0 0 1 1 2 2 1 1 0 -0 -0 -0 -1 -1 -1 -1 -1 -1 -0 -0 -0 0 0 0 0 1 1 0 0 0 -0 -0 -1 -1 -1 -1 -1 -1 -2 -2 -1 -1 -1 -1 -1 -1 -1 -1 -1 -1 -1 -1 -1 -1 -2 -2 -2 -2 -1 -1 -1 -1 -0 0 -0 -1 -2 -2 -2 -2 -2 -2 -1 -1 -1 -1 -0 -0 0 0 -0 -1 -1
-0 -0 0 0 0 -0 -0 -0 -0 -1 -1 -1 -1 -1 -1 -1 -1 -0 -0 -0 0 1 1 1 1 1 1 0 1 1 1 0 -0 -1 -1 -1 -1 -1 -0 -0 0 0 1 0 0 0 0 0 0 0 0 -0 -1 -1 -2 -1 -1 -1 -2 -2 -1 -1 -1 -1 -1 -1 -1 -1 -1 -1 -1 -1 -1 -1 -1 -1 -1 -1 -1 -1 -1 -1 1 0 -0 -1 -1 -2 -3 -3 -4 -3 -2 -2 -1 -1 -1 -1 -0 0 -0 0 2
0 0 0 0 0 0 -0 -0 -1 -1 -1 -1 -1 -1 -1 -0 -0 -0 -0 -0 0 0 0 -0 -0 -0 -0 0 1 1 1 0 0 -0 -0 -1 -1 -1 -0 0 0 0 0 0 -0 0 -0 -0 -0 -0 0 0 -0 -2 -4 -2 -1 -1 -2 -2 -1 -1 -1 -1 -1 -1 -1 -1 -1 -1 -1 -1 -1 -1 -1 -1 -1 -1 -1 -2 -2 -1 -1 -1 -0 0 -0 -2 -3 -3 -3 -4 -4 -3 -2 -2 -2 -2 -1 -0 -0 1 3
1 1 1 1 1 0 -0 -1 -1 -1 -0 -1 -1 -1 -1 -1 -0 -0 -0 -0 -0 -0 -1 -1 -1 -1 -1 -0 0 0 0 0 -0 0 0 -0 -1 -1 -0 0 0 0 -0 -0 -0 -0 -0 -0 -0 -0 -0 0 0 -1 -5 -2 -1 -1 -1 -1 -1 -1 -1 -0 -0 -0 -1 -1 -0 -0 -0 -0 -1 -1 -1 -1 -0 -0 -0 -2 -3 -2 -2 -2 -1 -1 -2 -3 -2 -2 -2 -3 -4 -4 -3 -2 -1 -1 0 0 0 0 -0
1 2 2 1 1 0 -0 -0 -1 -1 -1 -1 -1 -1 -1 -1 -1 -1 -1 -0 -0 -0 -1 -1 -1 -1 -1 -1 -0 -0 -0 -0 -0 -0 -0 -0 -0 -0 0 0 0 0 -0 -0 -0 -0 -0 -0 -0 0 0 1 1 -1 -4 -1 -1 -1 -1 -1 -1 -0 -0 -0 -0 -0 -1 -1 -0 -0 0 0 -0 -0 -0 -0 1 1 2 -0 -1 -1 -1 -2 -2 -2 -2 -3 -3 -2 -2 -2 -3 -4 -4 -3 -1 -1 0 1 1 0 -1
1 2 3 1 0 -0 -1 -1 -1 -1 -1 -1 -1 -0 -0 -1 -1 -1 -1 0 1 -0 -1 -1 -1 -1 -1 -1 -1 -1 -1 -0 0 0 -0 -0 -0 -0 0 0 0 0 0 -0 -0 -0 -0 -0 0 0 1 1 0 -1 -3 -1 -0 -0 -0 -0 -0 0 0 0 1 0 -0 -0 -0 -0 -0 1 0 -0 -0 1 1 2 4 2 1 0 1 -0 -1 -1 -0 -2 -3 -3 -1 -3 -3 -4 -4 -3 -3 -2 -2 -0 0 0 0
1 2 2 0 -0 -0 -1 -1 -0 -1 -1 -0 0 1 0 -0 -1 -1 -1 2 2 -0 -1 -1 -2 -2 -1 -1 -1 -1 -1 -0 -0 0 -0 -0 -0 -0 0 0 1 1 0 -0 -0 -0 -0 -0 0 0 1 1 -0 -1 -2 -1 -1 -0 -0 -0 -0 0 1 1 1 1 -0 -0 -0 -0 -0 0 -0 -0 0 1 1 2 4 3 2 1 2 1 2 2 2 0 -1 -2 -2 -3 -3 -3 -3 -3 -3 -4 -4 -2 -1 -0 -0
1 1 1 0 0 -0 -0 -0 -0 -0 0 1 1 0 -0 -1 -1 -0 0 2 1 -1 -1 -2 -2 -2 -1 -1 -1 -1 -1 -0 -0 -0 -0 -0 -0 -1 -0 -0 0 0 -0 -0 -1 -1 -1 -1 -0 -0 0 0 -1 -2 -3 -1 -1 -1 -1 -1 -0 -0 0 1 1 1 0 0 -0 -0 -0 -0 -0 -0 1 1 1 2 3 3 2 1 1 2 2 2 2 2 1 0 -1 -2 -2 -2 -2 -1 -2 -2 -3 -2 -1 -1 -0
1 1 0 0 0 -0 0 -0 -0 0 1 1 0 -0 -1 -1 -1 -0 -0 -1 -2 -2 -2 -3 -3 -2 -1 -1 -1 -1 -1 -1 -1 -1 -0 -0 -0 -0 -1 -1 -0 -0 -1 -1 -1 -1 -1 -1 -1 -1 -0 -0 -1 -2 -3 -1 -1 -1 -1 -1 -1 -0 -0 0 1 1 0 0 0 -0 0 -0 -0 -0 -0 1 1 1 1 3 2 1 0 1 1 1 1 2 2 1 0 -0 -0 -1 -1 -0 -0 -1 -1 -1 -1 -0 0
0 -0 0 -0 -0 -0 -0 -0 -0 0 1 0 -0 -1 -2 -2 -1 -1 -1 -2 -2 -2 -3 -3 -3 -2 -1 -1 -1 -1 -1 -1 -1 -1 -1 -1 -0 -0 -1 -1 -1 -1 -1 -1 -1 -1 -1 -1 -1 -1 -1 -0 -1 -2 -3 -2 -1 -1 -1 -1 -1 -0 -0 0 0 0 0 0 0 0 0 0 -0 -0 -0 2 2 2 1 2 1 0 -0 0 -0 -0 0 1 1 1 1 0 1 1 0 0 0 1 0 0 -0 0 0
-0 -0 -0 -1 -1 -0 -0 -0 0 1 0 -0 -1 -1 -2 -2 -2 -2 -2 -2 -1 -2 -2 -3 -3 -2 -1 -1 -1 -1 -1 -1 -2 -2 -1 -1 -1 -1 -0 -1 -1 -1 -1 -1 -1 -2 -1 -1 -1 -1 -1 -1 -1 -2 -3 -2 -1 -1 -1 -1 -1 -0 -0 -0 0 0 0 0 0 -0 -0 -0 -0 -0 0 1 1 0 -0 -0 -1 -1 -0 1 1 0 -1 -0 0 1 1 1 0 0 0 1 1 1 1 -0 -0 -0 0
-0 -1 -1 -1 -0 -0 0 0 0 0 -0 -1 -1 -1 -2 -2 -2 -2 -2 -1 -1 -0 -1 -1 -2 -2 -1 -1 -2 -2 -2 -2 -2 -2 -2 -2 -1 -1 -0 -1 -1 -1 -1 -1 -1 -2 -2 -1 -1 -1 -1 -1 -1 -1 -2 -2 -1 -1 -1 -1 -1 -0 -0 -0 -0 -0 -0 -0 -0 -0 -0 -0 -0 -0 -0 1 0 -0 -0 -1 -1 -1 -1 -0 -1 -1 -1 -1 0 1 1 -0 -0 -0 0 0 0 0 -0 -0 -0 -0 0
-1 -1 -1 -1 -0 -0 -0 -0 -1 -1 -1 -1 -1 -1 -1 -1 -1 -1 -1 -1 -1 -1 -1 -1 -1 -1 -1 -1 -2 -2 -2 -2 -2 -2 -2 -2 -1 -1 -1 -1 -1 -1 -1 -1 -1 -1 -1 -1 -1 -0 -0 0 -0 -1 -2 -2 -1 -0 -0 -0 -0 -0 -0 -0 -0 -0 -0 -0 -0 -0 -0 -0 -0 -0 -0 -0 -0 0 1 -0 -0 -1 -2 -1 -1 -1 -1 -1 -1 -1 -1 -1 -1 -1 -0 -0 -0 -0 0 0 0 -0 -1
-1 -2 -1 -1 -0 -0 -0 -1 -1 -1 -0 -0 -1 -0 -0 -0 -0 -1 -1 -1 -2 -2 -1 -1 -2 -2 -1 -1 -1 -1 -2 -1 -2 -2 -2 -2 -2 -1 -1 -1 -1 -1 -1 -1 -1 -1 -1 -0 -0 -0 -0 0 0 -0 -1 -1 -1 -1 -0 -0 -0 -0 -0 -0 -0 -0 -0 -0 -0 -0 -0 -0 -0 -0 -0 -0 -0 0 0 -0 -1 -2 -2 -1 -0 -0 -1 -1 -1 -0 -1 -1 -0 -0 -0 -0 -0 -0 0 -0 -1 -1 -2
-2 -2 -1 -1 -1 -0 -0 -0 -0 -0 -0 -0 -0 -0 0 0 -0 -1 -1 -1 -1 -1 -1 -1 -2 -2 -2 -1 -1 -1 -1 -1 -1 -1 -2 -2 -2 -2 -1 -1 -1 -1 -1 -1 -1 -1 -1 -0 -0 0 0 0 0 0 -0 -1 -1 -1 -0 -0 -0 -0 -0 -0 -0 -0 -0 0 0 -0 -0 -0 -0 -0 -0 -0 -0 -0 -1 -2 -2 -1 -1 0 0 -0 -1 -1 -0 -0 -1 -1 -1 -1 -1 -1 -1 -1 -1 -2 -2 -2 -2
-1 -1 -1 -1 -0 -0 0 -0 -0 -0 -0 -0 -0 0 0 -0 -0 -1 -1 -1 -1 -1 -1 -1 -2 -2 -1 -1 -1 -1 -1 -0 -0 -1 -1 -2 -2 -2 -2 -1 -1 -1 -1 -1 -1 -1 -1 -0 -0 -0 0 0 0 0 0 -0 -1 -1 -1 -0 -0 -0 -0 -0 -0 -0 -0 -0 -0 -0 -0 -0 -0 -0 -0 -0 -0 -0 -1 -2 -2 -1 -0 0 0 -0 -1 -1 -1 -1 -1 -1 -1 -1 -1 -1 -1 -1 -2 -2 -2 -1 -1
-1 -1 -1 -1 -0 0 0 -0 -1 -1 -0 -0 0 0 -0 -1 -1 -0 -1 -1 -1 -1 -1 -1 -1 -1 -1 -1 -1 -1 -1 -1 -0 -1 -1 -2 -2 -1 -1 -1 -1 -1 -1 -1 -1 -1 -1 -0 -0 -0 -0 0 0 1 0 0 -0 -0 -1 -0 -0 -0 -0 -0 -0 -0 -0 -0 -0 -0 -0 -0 -0 -0 -0 -0 -0 -1 -2 -2 -2 -1 -0 -0 -0 -0 -1 -1 -1 -1 -1 -1 -1 -1 -0 -0 -1 -1 -1 -1 -1 -1 -1
-1 -1 -1 -0 -0 -0 -1 -1 -1 -1 -0 -0 -0 -0 -0 -0 -1 -1 -1 -1 -1 -1 -1 -1 -1 -1 -1 -1 -0 -0 -1 -0 -0 -1 -1 -1 -2 -1 -1 -1 -1 -1 -1 -1 -1 -0 -0 -0 -0 0 0 0 0 0 0 0 0 -0 -0 -0 -0 -0 -0 -0 -0 -0 -0 -0 -0 -0 -1 -1 -1 -1 -1 -1 -1 -1 -2 -1 -1 -1 -0 -0 -0 -0 -1 -1 -1 -1 -1 -0 -0 0 -0 -0 -1 -1 -1 -1 -1 -2 -2
-1 -1 -1 -1 -1 -1 -1 -1 -1 -1 -0 -0 -0 -0 -0 -0 -1 -1 -1 -1 -1 -1 -1 -1 -1 -1 -1 -0 -0 -0 -0 -0 -0 -0 -0 -0 -1 -1 -1 -1 -1 -1 -1 -1 -0 -0 0 -0 -0 0 0 0 0 0 0 1 1 1 -0 -0 -0 -0 -0 -0 -0 -0 -0 -0 -0 -0 -1 -1 -1 -1 -1 -1 -1 -1 -1 -1 -1 -1 -1 -1 -1 -1 -1 -1 -1 -1 -1 -0 -0 -0 -0 -1 -1 -1 -1 -1 -2 -2 -1
-2 -2 -2 -1 -1 -1 -1 -1 -1 -1 -1 -1 -1 -0 -1 -1 -1 -1 -1 -1 -1 -1 -1 -1 -1 -0 0 0 0 -0 -0 0 1 0 0 -0 -0 -0 -1 -1 -1 -1 -1 -1 -0 0 0 -0 -0 0 0 0 0 0 0 1 1 1 1 0 0 -0 -0 -0 -0 -0 -0 -0 -0 -0 -1 -1 -1 -1 -1 -1 -1 -1 -1 -1 -1 -1 -1 -1 -1 -1 -1 -1 -1 -1 -1 -1 -1 -1 -1 -1 -1 -1 -1 -1 -1 -1 -1
-3 -3 -2 -1 -1 -1 -1 -1 -1 -1 -1 -1 -1 -1 -2 -2 -1 -1 -1 -1 -1 -1 -0 -0 -0 -0 1 1 1 0 0 1 1 1 0 0 -0 -0 -1 -1 -1 -1 -1 -1 -0 1 1 -0 -0 0 0 0 0 0 0 1 1 1 1 1 0 0 -0 -0 -0 -0 -0 -0 -0 -0 -0 -1 -1 -1 -1 -1 -1 -1 -1 -1 -1 -1 -1 -1 -1 -1 -1 -1 -1 -1 -1 -1 -1 -1 -1 -1 -1 -1 -1 -1 -1 -1 -1
-3 -2 -1 -0 -0 -0 -1 -1 -0 -0 -0 -0 -1 -2 -2 -2 -1 -1 -1 -1 -1 -0 0 0 0 0 0 1 0 0 0 0 0 0 -0 0 -0 -0 -1 -1 -1 -1 -1 -1 -0 0 1 0 -0 -0 0 0 0 0 0 0 1 1 1 1 1 0 0 -0 -0 -0 -1 -1 -0 0 0 -0 -1 -1 -1 -1 -1 -1 -1 -1 -1 -1 -1 -1 -1 -1 -1 -1 -1 -1 -1 -1 -1 -1 -1 -1 -1 -1 -1 -1 -1 -1 -1
-1 0 2 2 1 -1 -1 -1 -0 -0 0 0 -0 -1 -1 -1 -1 -1 -1 -0 -0 0 1 1 1 0 -0 0 0 -0 -1 0 0 0 -0 -0 -0 -0 -0 -0 -1 -1 -1 -1 -0 0 1 1 0 -0 -0 0 0 0 0 0 0 1 1 1 1 0 0 -0 -0 -0 -0 -1 -1 -0 0 -0 -0 -0 -1 -1 -1 -1 -1 -1 -1 -1 -1 -1 -1 -1 -1 -1 -1 -1 -1 -1 -1 -1 -1 -1 -1 -1 -1 -1 -1 -1 -1
1 2 2 1 -0 -1 -1 -1 -0 0 0 0 -0 -0 -1 -1 -1 -1 -1 -0 0 0 1 2 2 1 -0 -0 0 -0 -1 -0 -0 0 -0 -0 -0 -0 -0 -0 -0 -1 -1 -0 -0 0 0 1 0 0 0 1 1 0 -0 0 0 0 1 1 1 0 0 0 0 -0 0 -0 -1 -1 -1 -0 -0 -0 -0 -0 -0 -0 -1 -1 -1 -1 -1 -1 -1 -1 -1 -1 -1 -1 -1 -1 -1 -1 -1 -1 -1 -1 -1 -1 -1 -1 -1
1 1 0 -1 -1 -1 -1 -0 0 0 0 -0 -0 -0 -1 -0 -0 -0 -0 0 0 1 1 1 2 2 1 -0 -0 0 -0 -0 -0 0 0 -0 -0 -0 -0 -0 -0 -1 -1 -1 -0 -0 0 1 1 1 1 1 1 0 -0 -0 0 0 0 0 0 0 0 0 0 -0 0 -0 -0 -1 -1 -1 -1 -1 -0 -0 -0 -0 -1 -1 -1 -1 -1 -1 -1 -1 -1 -1 -1 -1 -1 -1 -1 -1 -0 -1 -1 -1 -1 -1 -1 -1 -1
-0 -1 -1 -1 -1 -1 -1 -0 0 0 -0 -0 -0 -0 -0 -0 -0 -0 0 0 1 1 0 0 0 1 1 0 -0 -0 -0 -0 -0 0 0 0 -0 -0 -0 -0 -0 -1 -1 -1 -0 -0 0 1 1 1 2 1 1 -0 -0 -0 0 0 0 0 0 0 0 -0 -0 -0 -0 -0 -0 -1 -1 -1 -1 -1 -1 -1 -1 -1 -1 -1 -1 -1 -1 -1 -1 -1 -1 -1 -1 -1 -1 -1 -1 -1 -1 -1 -1 -1 -1 -1 -1 -1 -1
-1 -1 -0 0 -0 -1 -1 -1 -0 -0 -0 -0 -0 -0 -0 -0 -0 0 0 1 1 1 -0 -0 -0 -0 -0 -0 -1 -1 -1 -1 -1 -0 0 0 0 -0 -0 -0 -0 -0 -1 -1 -0 -0 0 1 1 2 2 1 1 -0 -1 -0 0 0 1 0 0 -0 -0 -0 -0 -0 -0 -0 -0 -0 -1 -1 -1 -2 -1 -1 -1 -1 -1 -1 -1 -1 -1 -1 -1 -1 -2 -2 -1 -1 -1 -1 -1 -1 -1 -1 -1 -1 -1 -1 -1 -1 -1
-1 -0 1 1 -0 -1 -1 -1 -0 -0 -0 0 0 0 -0 -0 -0 0 0 0 0 0 -0 -1 -1 -1 -1 -1 -1 -1 -1 -1 -1 -1 -0 0 1 1 0 -0 -0 -0 -0 -0 -0 0 1 1 2 2 2 1 1 -0 -0 -0 0 1 0 0 -0 -0 -1 -1 -0 -0 -1 -0 -0 -1 -1 -1 -1 -1 -2 -2 -2 -2 -2 -2 -1 -1 -1 -1 -1 -1 -1 -1 -1 -1 -1 -1 -1 -1 -1 -1 -1 -1 -1 -1 -1 -1 -1
-0 0 1 1 -0 -1 -1 -1 -0 -0 -0 0 0 0 -0 -0 -0 -0 -0 -0 -0 -0 -0 -1 -1 -1 -1 -1 -1 -1 -1 -1 -1 -0 -0 -0 0 1 1 1 -0 -0 -0 -0 -0 -0 1 1 2 2 1 1 0 0 0 0 1 1 0 -1 -1 -1 -1 -1 -1 -0 -0 -0 -0 -0 -1 -1 -1 -1 -2 -2 -2 -2 -2 -2 -2 -1 -1 -1 -1 -1 -1 -1 -1 -1 -1 -1 -1 -1 -1 -1 -1 -1 -1 -1 -1 -1 -1
-0 0 1 -0 -1 -1 -0 -0 -0 -0 -0 0 0 -0 -0 -0 -0 -0 -0 -0 -0 -0 -0 -0 -1 -1 -1 -1 -1 -1 -1 -1 -1 -0 0 0 0 0 1 1 1 -0 -1 -0 -0 -0 0 1 1 1 1 1 1 0 0 1 1 1 1 -1 -2 -2 -1 -1 -1 -0 -0 -0 -0 -0 -1 -1 -1 -1 -1 -1 -1 -1 -2 -2 -2 -2 -1 -1 -1 -1 -1 -1 -1 -1 -1 -1 -1 -1 -1 -1 -1 -1 -1 -1 -1 -1 -1
0 1 0 -0 -0 -0 -0 -0 -0 -0 -0 -0 -0 -1 -1 -1 -0 0 0 0 0 -0 -0 -0 -1 -1 -1 -1 -1 -1 -1 -1 -1 -0 -0 0 1 1 1 2 1 -0 -1 -1 -0 -0 1 1 1 1 1 1 0 0 -1 -0 -0 0 1 1 -0 -1 -1 -1 -0 -0 0 0 -0 -0 -0 -1 -1 -1 -1 -1 -1 -1 -2 -2 -2 -2 -2 -1 -1 -1 -1 -1 -1 -0 -0 -0 -0 -0 -0 -0 -0 -0 -0 -0 -0 -0 -0
1 1 1 0 -0 -0 -0 -0 -0 -0 -0 -1 -1 -1 -1 -0 -0 0 0 0 0 -0 -0 -0 -0 -0 -0 -1 -1 -1 -1 -1 -1 -1 -1 -0 0 1 1 1 0 -1 -3 -2 -1 -0 1 1 1 1 1 1 0 -0 -1 -1 -0 0 0 1 1 0 -0 -0 0 0 0 0 -0 -0 -0 -1 -1 -1 -1 -1 -1 -1 -2 -2 -2 -2 -2 -2 -1 -1 -1 -1 -1 -1 -0 -0 -0 -0 -0 -0 0 0 0 0 0 0 0
1 1 1 0 -0 -0 -1 -1 -1 -1 -1 -1 -1 -1 -1 -0 -0 0 0 -0 -0 -0 -0 -0 -0 -0 0 -0 -1 -1 -1 -1 -1 -1 -1 -1 -2 -2 -1 -1 0 1 -0 -3 -3 -1 0 1 1 1 0 0 -0 -1 -1 -0 0 0 0 1 1 0 -0 -0 -0 -0 -0 -0 -0 -0 -0 -0 -1 -1 -1 -1 -1 -1 -2 -2 -2 -2 -2 -2 -2 -2 -2 -2 -1 -1 -1 -1 -1 -1 -1 -0 -0 -0 0 0 0 0 0
2 1 0 -0 -1 -1 -1 -1 -1 -1 -1 -1 -1 -1 -0 -0 -0 -0 -0 -0 -1 -1 -1 -1 -1 -0 0 -0 -0 -1 -1 -1 -1 -1 -1 -2 -3 -3 -3 -2 -1 1 1 1 -1 -2 -0 1 1 0 -0 -0 -0 -0 -0 0 0 0 0 -0 -0 -1 -1 -1 -1 -1 -2 -1 -1 -1 -1 -0 -0 -0 -1 -1 -1 -1 -2 -2 -2 -2 -3 -2 -2 -2 -2 -2 -2 -2 -1 -1 -1 -1 -1 -1 -1 -1 -0 -0 -0 0 0
1 0 -0 -1 -1 -1 -1 -1 -1 -1 -1 -1 -1 -1 -0 -0 -0 -0 -0 -0 -0 -0 -0 -0 -1 -1 -1 -1 -1 -1 -1 -1 -1 -1 -1 -1 -2 -4 -5 -6 -3 -2 -6 -2 1 1 -3 -0 0 -1 -1 -1 -1 -1 -1 -1 -1 -1 -1 -1 -2 -2 -3 -3 -3 -3 -3 -3 -3 -2 -2 -1 -1 -1 -1 -1 -1 -1 -1 -2 -2 -2 -2 -2 -2 -2 -2 -2 -2 -2 -2 -2 -2 -2 -2 -2 -2 -1 -1 -1 -1 -1 -0
1 0 -0 -1 -1 -1 -1 -1 -1 -1 -1 -1 -1 -1 -1 -1 -0 -0 -0 -0 -0 -0 -0 0 -0 -1 -2 -3 -2 -1 -1 -1 -1 -1 -1 -2 -3 -3 -4 -5 -3 -2 -5 -6 2 10 6 3 -4 -8 -4 -4 -3 -3 -3 -3 -3 -3 -3 -2 -2 -3 -3 -3 -3 -4 -4 -4 -4 -4 -3 -2 -2 -2 -1 -1 -1 -1 -1 -1 -1 -2 -2 -2 -2 -2 -2 -2 -2 -2 -2 -2 -2 -2 -2 -2 -2 -2 -2 -1 -1 -1 -1
1 1 -0 -0 -1 -1 -1 -1 -1 -1 -1 -1 -1 -1 -1 -0 -0 -0 -0 -0 -0 -0 -0 -0 -0 0 -0 -1 -2 -3 -2 -1 -1 -1 -1 -2 -2 -3 -2 -4 -3 -3 -7 -5 -2 3 9 1 -10 -14 -8 -6 -5 -5 -5 -4 -4 -3 -3 -2 -2 -2 -3 -3 -3 -4 -4 -4 -4 -4 -4 -4 -3 -3 -3 -3 -3 -2 -2 -1 -1 -1 -2 -2 -2 -2 -2 -2 -3 -3 -3 -3 -3 -2 -2 -2 -2 -2 -2 -2 -2 -1 -1
2 1 -0 -1 -1 -1 -1 -1 -1 -1 -1 -1 -1 -1 -1 -0 0 0 0 0 -0 -0 -0 -0 0 1 1 1 -0 -2 -3 -1 -1 -1 -1 -1 -2 -2 -3 -3 -2 -1 -1 1 2 2 1 -7 -12 -10 1 -1 -3 -4 -1 -1 -2 -3 -3 -3 -3 -3 -3 -3 -3 -4 -4 -4 -4 -4 -5 -5 -5 -4 -4 -4 -3 -3 -3 -2 -2 -2 -2 -2 -2 -2 -2 -3 -3 -3 -3 -3 -3 -3 -3 -2 -2 -2 -2 -2 -2 -1 -1
2 1 -0 -1 -1 -2 -2 -2 -1 -1 -1 -1 -1 -1 -0 -0 0 0 -0 -0 -0 -0 -0 0 0 0 1 1 1 -0 -2 -2 -1 -1 -1 -1 -1 -1 -2 -2 -3 -3 1 6 4 -1 -2 -8 -9 -4 7 2 -1 -2 -0 -2 -4 -5 -6 -5 -5 -4 -5 -4 -4 -4 -5 -5 -5 -5 -5 -5 -5 -5 -4 -4 -4 -4 -3 -3 -3 -2 -2 -2 -2 -2 -2 -3 -3 -3 -3 -3 -3 -4 -4 -3 -3 -3 -3 -2 -2 -2 -2
2 1 -1 -1 -2 -2 -2 -2 -1 -1 -1 -1 -1 -0 -0 0 -0 -0 -0 -1 -1 -0 0 0 0 0 0 0 1 1 1 -1 -2 -1 -1 -1 -1 -1 -1 -1 -1 -1 -2 -2 -3 -4 -4 -3 -2 -2 -3 -2 -2 -2 -2 -3 -4 -4 -5 -5 -5 -5 -7 -6 -6 -6 -6 -6 -5 -5 -5 -5 -5 -6 -6 -5 -5 -4 -4 -3 -3 -2 -2 -2 -2 -2 -3 -3 -3 -3 -3 -3 -3 -3 -3 -3 -3 -3 -3 -3 -2 -2 -2
2 0 -1 -2 -2 -2 -2 -2 -1 -1 -1 -1 -1 -0 -0 -0 -0 -1 -1 -1 -0 -0 0 0 0 0 0 0 1 1 2 2 -0 -2 -3 -2 -2 -2 -2 -1 -1 -1 -1 -1 -1 -2 -3 -2 -0 -0 -6 -7 -2 1 -2 -3 -2 -1 1 2 0 -2 -6 -6 -6 -6 -5 -5 -5 -5 -4 -5 -5 -6 -6 -7 -6 -5 -4 -3 -3 -2 -2 -2 -3 -3 -3 -4 -4 -4 -4 -4 -4 -4 -4 -3 -3 -3 -3 -3 -3 -3 -3
2 -0 -2 -2 -2 -2 -2 -2 -1 -1 -1 -1 -1 -1 -1 -1 -1 -1 -1 -1 -0 -0 -0 -0 -0 -0 -0 -0 0 1 2 2 2 0 -2 -3 -3 -3 -3 -4 -4 -4 -3 -2 -2 -2 -2 -1 -1 -1 -2 -6 -6 -4 1 -1 -3 -3 -2 0 1 0 -2 -3 -3 -3 -3 -3 -4 -5 -5 -4 -5 -5 -6 -6 -6 -6 -5 -4 -3 -3 -3 -3 -4 -4 -4 -5 -5 -5 -5 -6 -6 -5 -5 -5 -4 -4 -3 -3 -3 -3 -3
1 -1 -2 -2 -2 -2 -2 -2 -1 -1 -1 -1 -1 -1 -1 -1 -1 -1 -1 -1 -1 -0 -0 -0 -0 0 0 0 0 1 1 1 1 1 1 0 -1 -2 -2 -3 -3 -3 -3 -3 -3 -3 -2 -1 -2 -2 -1 -1 -4 -8 -8 -2 -1 -2 -4 -3 -2 -1 -1 -1 -1 -1 -1 -1 -2 -3 -4 -4 -4 -4 -5 -5 -5 -6 -6 -5 -4 -4 -4 -4 -4 -5 -5 -5 -5 -5 -5 -5 -6 -6 -6 -5 -5 -4 -3 -3 -3 -3 -3
0 -1 -2 -2 -2 -2 -2 -2 -1 -1 -1 -1 -1 -1 -1 -1 -1 -1 -1 -1 -1 -0 -0 -0 0 0 0 0 0 0 0 0 0 -0 0 1 0 -1 -3 -3 -3 -2 -3 -3 -4 -3 -3 -2 -1 -1 -1 -1 -1 -2 -6 -6 -3 -1 -1 -1 -2 -3 -4 -2 -0 1 1 0 0 -0 -1 -2 -3 -4 -4 -4 -4 -5 -5 -5 -5 -4 -4 -4 -4 -4 -4 -4 -4 -4 -3 -3 -4 -4 -5 -4 -4 -4 -3 -3 -3 -2 -2
Height
1526 1525 1525 1525 1525 1525 1525 1525 1525 1525 1524 1524 1524 1524 1524 1524 1524 1524 1525 1525 1525 1525 1525 1525 1525 1524 1524 1524 1524 1524 1524 1523 1523 1523 1523 1523 1523 1523 1523 1522 1522 1522 1522 1522 1522 1521 1521 1521 1522 1523 1523 1523 1523 1523 1522 1522 1522 1521 1521 1521 1521 1521 1520 1520 1520 1519 1519 1519 1519 1519 1519 1518 1518 1518 1518 1518 1518 1518 1518 1518 1518 1518 1518 1518 1518 1519 1519 1518 1518 1518 1518 1518 1518 1518 1518 1518 1518 1518 1518 1518 1517 1517 1517
1526 1526 1525 1525 1525 1525 1525 1525 1525 1525 1525 1525 1525 1525 1525 1525 1525 1525 1525 1525 1525 1525 1525 1525 1525 1524 1524 1524 1524 1524 1524 1523 1523 1523 1523 1523 1523 1523 1523 1522 1522 1522 1522 1522 1522 1522 1522 1522 1523 1523 1523 1523 1523 1523 1523 1522 1522 1521 1521 1521 1521 1520 1520 1520 1520 1519 1519 1519 1519 1519 1518 1518 1518 1518 1518 1518 1518 1518 1518 1518 1518 1518 1518 1518 1518 1518 1518 1517 1517 1518 1518 1518 1518 1518 1517 1517 1517 1517 1517 1517 1517 1517 1517
1526 1526 1526 1526 1526 1526 1526 1526 1526 1525 1525 1525 1525 1525 1525 1525 1525 1525 1525 1525 1525 1525 1525 1525 1525 1525 1524 1524 1524 1524 1524 1524 1523 1524 1524 1524 1523 1523 1523 1523 1522 1522 1522 1522 1522 1522 1522 1522 1523 1523 1524 1524 1523 1523 1523 1522 1522 1521 1521 1521 1521 1520 1520 1519 1519 1519 1519 1519 1519 1518 1518 1518 1518 1518 1518 1518 1518 1518 1518 1518 1518 1518 1518 1518 1518 1517 1517 1517 1517 1517 1517 1517 1517 1517 1517 1517 1517 1516 1516 1517 1517 1516 1517
1526 1526 1526 1526 1526 1526 1526 1526 1526 1526 1526 1526 1525 1525 1525 1525 1525 1525 1525 1525 1525 1525 1525 1525 1525 1525 1525 1524 1524 1524 1524 1524 1524 1524 1524 1524 1524 1523 1523 1523 1523 1522 1522 1522 1522 1522 1522 1522 1523 1523 1524 1524 1523 1523 1523 1522 1522 1521 1521 1521 1520 1520 1519 1519 1519 1519 1519 1519 1519 1518 1518 1518 1518 1518 1518 1518 1518 1517 1517 1518 1518 1518 1518 1518 1517 1517 1517 1517 1517 1517 1517 1517 1517 1517 1517 1516 1516 1516 1516 1516 1516 1516 1516
1526 1526 1526 1526 1526 1526 1526 1526 1526 1526 1526 1526 1526 1526 1525 1525 1525 1525 1525 1525 1525 1525 1525 1525 1525 1525 1525 1525 1525 1524 1524 1524 1524 1524 1524 1524 1524 1524 1523 1523 1523 1523 1522 1522 1522 1523 1523 1523 1524 1524 1524 1524 1524 1523 1523 1522 1521 1521 1521 1521 1520 1519 1519 1519 1519 1519 1519 1519 1518 1518 1518 1518 1518 1518 1518 1518 1518 1518 1517 1517 1517 1517 1517 1517 1517 1517 1517 1517 1517 1517 1517 1517 1516 1516 1516 1516 1516 1516 1515 1515 1515 1515 1516
1526 1526 1526 1526 1526 1526 1526 1526 1526 1526 1526 1526 1526 1526 1526 1526 1526 1526 1525 1525 1525 1525 1525 1525 1525 1525 1525 1525 1525 1525 1524 1524 1524 1524 1524 1524 1524 1524 1523 1523 1523 1523 1523 1523 1523 1523 1523 1524 1525 1525 1524 1524 1524 1523 1523 1522 1521 1521 1521 1521 1520 1519 1519 1519 1518 1518 1518 1518 1518 1518 1518 1518 1518 1517 1518 1518 1518 1517 1517 1517 1517 1517 1517 1517 1517 1517 1517 1517 1517 1517 1516 1516 1516 1516 1516 1515 1515 1515 1515 1515 1515 1515 1515
1526 1526 1526 1526 1526 1526 1526 1526 1526 1526 1526 1526 1526 1526 1526 1526 1526 1526 1526 1525 1525 1525 1525 1525 1525 1525 1525 1525 1525 1525 1525 1525 1525 1524 1524 1524 1524 1523 1523 1523 1523 1523 1523 1523 1523 1523 1523 1523 1524 1524 1524 1524 1523 1523 1522 1522 1521 1521 1521 1520 1519 1519 1519 1518 1518 1518 1518 1518 1518 1517 1517 1517 1517 1517 1517 1517 1517 1517 1517 1517 1517 1516 1517 1517 1516 1516 1516 1516 1516 1516 1516 1516 1515 1515 1515 1515 1514 1514 1514 1514 1514 1514 1514
1526 1526 1526 1526 1526 1526 1526 1526 1526 1526 1526 1526 1526 1526 1526 1526 1526 1526 1525 1526 1525 1525 1525 1525 1525 1525 1525 1525 1525 1525 1525 1524 1524 1524 1524 1524 1524 1524 1524 1523 1523 1523 1523 1523 1523 1523 1523 1523 1523 1524 1524 1523 1523 1522 1522 1522 1522 1521 1521 1520 1519 1519 1518 1518 1518 1518 1518 1518 1517 1517 1517 1517 1517 1517 1517 1517 1516 1516 1516 1516 1516 1516 1516 1516 1516 1516 1516 1515 1515 1515 1514 1514 1514 1514 1514 1514 1513 1513 1513 1513 1513 1513 1513
1527 1527 1527 1526 1526 1526 1526 1526 1526 1526 1526 1526 1526 1526 1526 1526 1526 1526 1526 1525 1525 1525 1525 1525 1525 1525 1525 1525 1525 1525 1525 1524 1524 1524 1524 1524 1524 1524 1524 1523 1523 1523 1523 1523 1523 1523 1523 1523 1523 1523 1523 1523 1522 1522 1522 1522 1522 1521 1521 1520 1519 1519 1518 1518 1518 1518 1517 1517 1517 1517 1517 1517 1517 1516 1516 1516 1516 1516 1516 1516 1516 1516 1515 1515 1515 1515 1515 1514 1514 1514 1513 1513 1513 1513 1513 1513 1513 1512 1512 1512 1512 1512 1512
1527 1527 1527 1527 1527 1527 1527 1526 1526 1526 1526 1526 1526 1526 1526 1526 1526 1526 1526 1526 1526 1526 1525 1525 1525 1525 1525 1525 1525 1525 1525 1525 1524 1524 1524 1524 1524 1524 1524 1524 1523 1523 1523 1523 1523 1523 1523 1523 1523 1523 1523 1523 1522 1522 1522 1522 1521 1521 1520 1520 1519 1519 1518 1518 1518 1517 1517 1517 1517 1517 1517 1517 1516 1516 1516 1516 1516 1516 1516 1516 1515 1515 1515 1515 1514 1514 1514 1514 1513 1513 1512 1512 1512 1512 1512 1512 1512 1512 1511 1511 1511 1511 1511
1527 1527 1527 1527 1527 1527 1527 1527 1527 1527 1526 1526 1526 1526 1526 1526 1526 1526 1526 1526 1526 1526 1525 1526 1525 1525 1525 1525 1525 1525 1525 1525 1524 1524 1524 1524 1524 1524 1524 1524 1523 1523 1523 1523 1523 1523 1522 1523 1523 1523 1522 1522 1522 1522 1521 1521 1521 1521 1520 1519 1519 1518 1518 1518 1517 1517 1517 1517 1517 1517 1516 1516 1516 1516 1516 1516 1516 1516 1515 1515 1515 1514 1514 1514 1514 1513 1513 1513 1512 1512 1511 1511 1511 1511 1511 1511 1511 1511 1511 1511 1510 1510 1510
1527 1527 1527 1527 1527 1527 1527 1527 1527 1527 1527 1526 1526 1526 1526 1526 1526 1526 1526 1526 1526 1526 1526 1526 1525 1525 1525 1525 1525 1525 1525 1525 1524 1524 1524 1524 1524 1524 1524 1523 1523 1523 1523 1523 1523 1522 1522 1522 1522 1522 1522 1522 1521 1521 1521 1521 1521 1520 1520 1519 1519 1518 1518 1517 1517 1517 1517 1516 1516 1516 1516 1516 1516 1516 1515 1515 1515 1515 1515 1514 1514 1514 1513 1513 1513 1512 1512 1512 1511 1511 1510 1510 1510 1510 1510 1510 1510 1509 1509 1509 1509 1509 1509
1527 1527 1527 1527 1527 1527 1527 1527 1527 1527 1527 1526 1526 1526 1526 1526 1526 1526 1526 1526 1526 1526 1526 1526 1526 1525 1525 1525 1525 1525 1525 1525 1525 1524 1524 1524 1524 1524 1523 1523 1523 1523 1523 1522 1522 1522 1522 1522 1522 1522 1522 1521 1521 1521 1521 1521 1520 1520 1520 1519 1518 1518 1518 1517 1517 1517 1516 1516 1516 1516 1516 1516 1516 1515 1515 1514 1514 1514 1514 1513 1513 1513 1513 1512 1512 1511 1511 1511 1510 1510 1510 1510 1510 1509 1509 1509 1509 1508 1508 1507 1508 1508 1508
1527 1527 1527 1527 1527 1527 1527 1527 1527 1527 1527 1527 1526 1526 1526 1526 1526 1526 1526 1526 1526 1526 1526 1526 1526 1526 1525 1525 1525 1525 1525 1525 1525 1524 1524 1524 1524 1523 1523 1523 1523 1523 1522 1522 1522 1522 1522 1522 1522 1522 1521 1521 1521 1521 1520 1520 1520 1519 1519 1519 1518 1518 1518 1517 1517 1517 1516 1516 1516 1516 1515 1515 1515 1515 1514 1513 1513 1513 1513 1513 1513 1513 1512 1512 1512 1511 1511 1510 1510 1510 1509 1509 1509 1509 1508 1508 1508 1508 1507 1507 1507 1507 1507
1527 1527 1527 1528 1528 1527 1527 1527 1527 1527 1527 1527 1527 1526 1526 1526 1526 1526 1526 1526 1526 1526 1526 1526 1526 1526 1526 1525 1525 1525 1525 1525 1524 1524 1524 1524 1523 1523 1523 1523 1523 1522 1522 1522 1522 1522 1522 1522 1522 1521 1521 1521 1521 1520 1520 1520 1520 1519 1519 1518 1518 1518 1517 1517 1517 1516 1516 1516 1515 1515 1515 1515 1514 1514 1514 1513 1513 1513 1513 1513 1512 1512 1512 1511 1511 1511 1511 1510 1510 1509 1509 1508 1508 1508 1507 1507 1507 1507 1507 1506 1506 1506 1506
1527 1528 1528 1528 1528 1528 1527 1527 1527 1527 1527 1527 1527 1527 1527 1526 1526 1526 1526 1526 1526 1526 1526 1526 1526 1526 1526 1525 1525 1525 1525 1524 1524 1524 1524 1523 1523 1523 1523 1522 1522 1522 1522 1522 1522 1522 1522 1521 1521 1521 1521 1521 1520 1520 1520 1519 1519 1519 1518 1518 1518 1517 1517 1517 1516 1516 1516 1515 1515 1515 1514 1514 1514 1514 1513 1513 1513 1512 1512 1512 1512 1511 1511 1511 1510 1510 1510 1510 1509 1509 1509 1508 1507 1506 1506 1506 1506 1506 1506 1506 1506 1505 1505
1528 1528 1528 1528 1528 1528 1527 1527 1527 1527 1527 1527 1527 1527 1527 1527 1527 1527 1526 1526 1526 1526 1526 1526 1526 1526 1526 1526 1525 1525 1525 1524 1524 1524 1523 1523 1523 1523 1522 1522 1522 1522 1522 1522 1522 1522 1522 1521 1521 1521 1521 1520 1520 1520 1519 1519 1519 1518 1518 1517 1517 1517 1516 1516 1516 1515 1515 1515 1514 1514 1514 1513 1513 1513 1513 1512 1512 1512 1512 1511 1511 1511 1510 1510 1510 1509 1508 1508 1508 1508 1508 1507 1507 1506 1506 1506 1505 1505 1505 1505 1505 1504 1504
1528 1528 1528 1528 1528 1527 1527 1527 1527 1527 1527 1527 1527 1527 1527 1527 1527 1527 1527 1527 1527 1527 1526 1526 1526 1526 1526 1526 1525 1525 1525 1524 1524 1523 1523 1523 1523 1522 1522 1522 1522 1522 1522 1522 1522 1522 1521 1521 1521 1521 1520 1520 1519 1519 1519 1518 1518 1517 1517 1517 1517 1516 1516 1516 1515 1515 1514 1514 1514 1513 1513 1513 1512 1512 1512 1512 1511 1511 1511 1511 1511 1510 1510 1509 1509 1508 1507 1507 1507 1507 1506 1506 1506 1506 1506 1505 1505 1505 1504 1504 1504 1503 1503
1528 1528 1528 1528 1528 1527 1527 1527 1527 1527 1527 1527 1527 1527 1527 1527 1527 1527 1527 1527 1527 1527 1527 1526 1526 1526 1526 1525 1525 1525 1525 1524 1524 1523 1523 1523 1522 1522 1522 1522 1522 1522 1522 1521 1521 1521 1521 1521 1520 1520 1520 1519 1519 1518 1518 1518 1517 1517 1516 1516 1516 1516 1515 1515 1515 1514 1514 1513 1513 1512 1512 1512 1511 1511 1511 1511 1511 1511 1510 1510 1510 1510 1509 1509 1508 1507 1507 1506 1506 1506 1506 1506 1505 1505 1505 1505 1504 1504 1504 1504 1503 1503 1503
1528 1528 1528 1528 1527 1527 1527 1527 1527 1527 1527 1527 1527 1527 1527 1527 1527 1527 1527 1527 1527 1526 1526 1526 1526 1526 1526 1525 1525 1525 1525 1524 1524 1523 1523 1523 1522 1522 1522 1522 1522 1521 1521 1521 1521 1521 1521 1520 1520 1520 1519 1519 1518 1518 1517 1517 1516 1516 1516 1516 1515 1515 1515 1514 1514 1513 1513 1512 1512 1512 1511 1511 1511 1511 1511 1510 1510 1510 1509 1509 1509 1509 1508 1508 1507 1507 1506 1506 1505 1505 1505 1504 1504 1504 1504 1503 1503 1503 1503 1503 1503 1502 1502
1528 1528 1528 1528 1528 1527 1527 1527 1527 1527 1527 1527 1527 1527 1527 1527 1527 1527 1527 1527 1526 1526 1526 1526 1526 1526 1525 1525 1525 1525 1524 1524 1523 1523 1523 1523 1522 1522 1522 1521 1521 1521 1521 1521 1520 1520 1520 1519 1519 1519 1518 1518 1518 1517 1516 1516 1516 1516 1515 1515 1515 1514 1514 1513 1513 1513 1512 1512 1511 1511 1511 1510 1510 1510 1510 1509 1509 1509 1508 1508 1508 1507 1507 1507 1506 1506 1505 1504 1504 1504 1504 1503 1503 1503 1503 1503 1502 1502 1502 1502 1501 1501 1501
1528 1528 1528 1528 1528 1527 1527 1527 1527 1527 1528 1527 1527 1528 1528 1527 1527 1527 1527 1527 1526 1526 1526 1526 1526 1525 1525 1525 1524 1524 1524 1523 1523 1523 1522 1522 1522 1522 1521 1521 1521 1520 1520 1520 1520 1519 1519 1519 1518 1518 1518 1517 1517 1516 1515 1515 1515 1515 1514 1514 1514 1513 1513 1513 1512 1512 1511 1511 1511 1510 1510 1509 1509 1509 1509 1509 1508 1508 1508 1507 1506 1506 1506 1506 1505 1505 1504 1503 1503 1503 1503 1502 1502 1502 1502 1502 1501 1501 1501 1500 1500 1500 1500
1528 1528 1528 1528 1528 1528 1527 1527 1527 1527 1527 1527 1528 1528 1528 1527 1527 1527 1527 1526 1526 1526 1526 1526 1525 1525 1525 1524 1524 1524 1523 1523 1523 1522 1522 1522 1521 1521 1521 1521 1520 1520 1519 1519 1519 1518 1518 1518 1517 1517 1517 1516 1516 1515 1514 1514 1514 1513 1513 1513 1512 1512 1512 1511 1511 1511 1510 1510 1509 1509 1509 1509 1508 1508 1508 1508 1508 1507 1507 1506 1506 1506 1506 1505 1504 1504 1503 1502 1502 1502 1502 1501 1501 1501 1501 1501 1501 1500 1499 1499 1499 1499 1499
1528 1528 1528 1528 1528 1528 1527 1527 1527 1527 1527 1528 1528 1528 1527 1527 1527 1527 1526 1526 1526 1526 1526 1526 1525 1525 1524 1524 1524 1523 1523 1522 1522 1522 1522 1521 1521 1521 1520 1520 1520 1519 1519 1518 1518 1517 1517 1517 1516 1516 1516 1515 1514 1514 1513 1513 1513 1512 1512 1512 1511 1511 1511 1511 1510 1510 1509 1509 1508 1508 1508 1507 1507 1507 1507 1507 1507 1506 1506 1506 1505 1505 1505 1504 1504 1503 1503 1502 1501 1501 1501 1500 1500 1500 1500 1500 1500 1499 1498 1498 1498 1498 1498
1528 1528 1528 1528 1528 1528 1528 1528 1528 1528 1528 1528 1528 1527 1527 1527 1526 1526 1526 1526 1526 1526 1526 1525 1525 1524 1524 1523 1523 1522 1522 1522 1521 1521 1521 1521 1521 1520 1520 1519 1519 1518 1518 1518 1517 1517 1516 1516 1516 1515 1515 1514 1513 1513 1512 1512 1511 1511 1511 1511 1510 1510 1510 1509 1509 1509 1508 1508 1507 1507 1507 1506 1506 1506 1506 1506 1506 1506 1505 1505 1504 1504 1504 1503 1503 1502 1502 1501 1501 1500 1500 1500 1499 1499 1499 1499 1499 1498 1498 1497 1497 1497 1496
1527 1527 1527 1527 1527 1527 1527 1527 1527 1527 1527 1527 1527 1527 1527 1526 1526 1526 1526 1526 1526 1525 1525 1525 1524 1524 1523 1523 1522 1522 1522 1521 1521 1521 1521 1520 1520 1520 1519 1519 1518 1518 1517 1517 1516 1516 1516 1515 1515 1514 1514 1513 1512 1511 1511 1511 1510 1510 1510 1509 1509 1509 1508 1508 1508 1507 1507 1506 1506 1506 1506 1505 1505 1505 1505 1505 1505 1504 1504 1504 1503 1502 1502 1502 1502 1501 1501 1501 1500 1500 1499 1499 1499 1498 1498 1498 1498 1497 1497 1497 1496 1496 1496
1527 1527 1527 1527 1527 1527 1527 1527 1527 1527 1527 1527 1527 1526 1526 1526 1526 1526 1526 1526 1525 1525 1525 1524 1524 1523 1523 1522 1522 1521 1521 1521 1521 1520 1520 1520 1519 1519 1518 1518 1517 1517 1516 1516 1516 1515 1515 1514 1514 1513 1513 1512 1511 1511 1510 1509 1509 1509 1508 1508 1508 1507 1507 1507 1507 1506 1506 1506 1505 1505 1505 1504 1504 1504 1504 1504 1504 1503 1503 1503 1502 1501 1501 1501 1501 1500 1500 1500 1500 1499 1498 1498 1498 1498 1497 1497 1497 1497 1496 1496 1496 1495 1495
1526 1526 1526 1526 1527 1527 1527 1527 1527 1527 1527 1526 1526 1526 1526 1526 1526 1526 1526 1525 1525 1525 1524 1524 1523 1523 1522 1522 1521 1521 1521 1520 1520 1520 1519 1519 1519 1518 1518 1517 1516 1516 1516 1515 1515 1514 1514 1513 1513 1512 1511 1511 1510 1510 1509 1508 1508 1507 1507 1507 1506 1506 1506 1506 1506 1505 1505 1505 1504 1504 1503 1503 1503 1503 1503 1503 1502 1502 1501 1501 1501 1500 1500 1500 1500 1499 1499 1499 1498 1498 1498 1497 1497 1497 1496 1496 1496 1496 1495 1495 1495 1494 1494
1526 1526 1526 1526 1527 1527 1527 1526 1526 1526 1526 1526 1526 1526 1526 1526 1525 1525 1525 1525 1524 1524 1524 1523 1523 1522 1522 1521 1521 1521 1520 1520 1519 1519 1519 1518 1518 1517 1517 1516 1516 1515 1515 1514 1514 1513 1512 1512 1511 1511 1511 1510 1509 1508 1508 1507 1507 1506 1506 1506 1505 1505 1505 1505 1504 1504 1504 1503 1503 1503 1502 1502 1502 1502 1501 1501 1501 1501 1500 1500 1499 1499 1499 1499 1498 1498 1497 1497 1497 1497 1497 1496 1496 1496 1496 1495 1495 1495 1494 1494 1493 1493 1493
1526 1526 1526 1526 1526 1526 1526 1526 1526 1526 1526 1526 1526 1526 1525 1525 1525 1525 1525 1524 1524 1524 1523 1523 1522 1522 1522 1521 1521 1520 1520 1519 1519 1518 1518 1517 1517 1516 1516 1516 1515 1514 1514 1513 1512 1512 1511 1511 1511 1510 1510 1509 1508 1507 1507 1506 1506 1505 1505 1505 1504 1504 1504 1503 1503 1503 1503 1502 1502 1501 1501 1501 1501 1501 1500 1500 1500 1500 1499 1499 1498 1498 1498 1497 1497 1496 1496 1496 1496 1496 1496 1495 1495 1495 1494 1494 1494 1493 1493 1493 1492 1492 1491
1525 1525 1526 1526 1526 1526 1526 1525 1525 1525 1525 1525 1525 1525 1525 1525 1524 1524 1524 1524 1524 1523 1523 1523 1522 1522 1521 1521 1521 1520 1520 1519 1518 1518 1517 1517 1516 1516 1515 1515 1514 1513 1513 1512 1511 1511 1511 1510 1509 1509 1508 1508 1507 1507 1506 1505 1505 1504 1504 1504 1503 1503 1503 1502 1502 1502 1501 1501 1501 1501 1500 1500 1500 1499 1499 1499 1499 1498 1498 1497 1497 1497 1496 1496 1496 1496 1495 1495 1495 1495 1494 1494 1494 1493 1493 1493 1492 1492 1492 1491 1491 1491 1490
1525 1525 1525 1525 1525 1525 1525 1525 1525 1525 1525 1525 1525 1525 1524 1524 1524 1524 1523 1523 1523 1523 1522 1522 1522 1521 1521 1521 1520 1520 1519 1518 1518 1517 1516 1516 1515 1515 1514 1513 1513 1512 1511 1511 1510 1510 1509 1509 1508 1508 1507 1507 1506 1506 1505 1505 1504 1503 1503 1503 1502 1502 1502 1501 1501 1501 1501 1500 1500 1500 1499 1499 1499 1498 1498 1498 1497 1497 1496 1496 1496 1496 1495 1495 1495 1494 1494 1493 1493 1493 1493 1493 1492 1492 1492 1491 1491 1491 1490 1490 1489 1489 1488
1525 1525 1525 1525 1525 1525 1524 1524 1524 1524 1524 1524 1524 1524 1524 1524 1523 1523 1523 1523 1522 1522 1522 1522 1521 1521 1521 1520 1520 1519 1518 1518 1517 1516 1516 1515 1514 1514 1513 1512 1512 1511 1511 1510 1509 1509 1508 1508 1507 1506 1506 1506 1506 1505 1504 1504 1503 1503 1502 1502 1501 1501 1501 1501 1501 1500 1500 1499 1499 1499 1498 1498 1498 1497 1497 1497 1496 1496 1495 1495 1495 1494 1494 1494 1494 1493 1492 1492 1492 1492 1491 1491 1491 1491 1490 1490 1490 1489 1488 1488 1487 1487 1487
1524 1524 1524 1524 1524 1524 1524 1524 1524 1524 1524 1524 1524 1524 1523 1523 1523 1523 1522 1522 1522 1522 1521 1521 1521 1520 1520 1519 1519 1518 1518 1517 1516 1516 1515 1514 1513 1513 1512 1511 1511 1510 1510 1509 1508 1508 1507 1506 1506 1506 1505 1505 1505 1504 1504 1503 1502 1502 1501 1501 1501 1501 1500 1500 1500 1499 1499 1499 1498 1498 1497 1497 1496 1496 1496 1496 1495 1495 1494 1494 1493 1493 1493 1493 1492 1492 1491 1491 1491 1490 1490 1490 1490 1489 1489 1488 1488 1487 1487 1486 1486 1486 1485
1523 1523 1523 1523 1524 1524 1524 1524 1524 1524 1523 1523 1523 1523 1523 1523 1522 1522 1522 1522 1521 1521 1521 1521 1520 1520 1519 1519 1518 1517 1517 1516 1516 1515 1514 1513 1512 1512 1511 1510 1510 1509 1509 1508 1507 1507 1506 1506 1505 1505 1504 1504 1503 1503 1503 1502 1502 1501 1501 1500 1500 1500 1499 1499 1499 1498 1498 1498 1497 1497 1496 1496 1496 1495 1495 1495 1494 1494 1493 1493 1492 1492 1492 1491 1491 1491 1490 1490 1489 1489 1489 1488 1488 1488 1487 1487 1486 1486 1485 1485 1484 1484 1484
1523 1523 1523 1523 1523 1523 1523 1523 1523 1523 1523 1523 1523 1523 1522 1522 1522 1522 1521 1521 1521 1521 1520 1520 1519 1519 1518 1518 1517 1516 1516 1516 1515 1514 1513 1513 1512 1511 1510 1509 1509 1508 1508 1507 1507 1506 1505 1505 1504 1504 1503 1503 1502 1502 1502 1501 1501 1501 1500 1500 1499 1499 1498 1498 1498 1497 1497 1497 1496 1496 1496 1495 1495 1494 1494 1493 1493 1492 1492 1492 1491 1491 1491 1490 1490 1489 1489 1488 1488 1487 1487 1487 1486 1486 1486 1485 1485 1484 1484 1483 1483 1482 1482
1522 1522 1522 1522 1522 1523 1523 1523 1523 1523 1522 1522 1522 1522 1522 1522 1521 1521 1521 1521 1520 1520 1520 1519 1519 1518 1517 1517 1516 1516 1515 1515 1514 1513 1513 1512 1511 1510 1509 1509 1508 1507 1507 1506 1506 1505 1505 1504 1503 1503 1502 1502 1502 1501 1501 1501 1500 1500 1500 1499 1499 1498 1498 1497 1497 1497 1496 1496 1496 1495 1495 1494 1494 1493 1493 1492 1492 1491 1491 1491 1490 1490 1489 1489 1488 1488 1487 1487 1486 1486 1486 1485 1485 1485 1484 1484 1483 1483 1482 1481 1481 1481 1480
1521 1521 1522 1522 1522 1522 1522 1522 1522 1522 1522 1522 1522 1522 1521 1521 1521 1521 1520 1520 1520 1519 1519 1518 1518 1517 1517 1516 1516 1515 1514 1514 1513 1512 1512 1511 1510 1510 1509 1508 1507 1506 1506 1506 1505 1505 1504 1503 1502 1502 1501 1501 1501 1501 1500 1500 1500 1499 1499 1498 1498 1498 1497 1497 1496 1496 1496 1495 1495 1494 1494 1493 1493 1492 1492 1491 1491 1491 1490 1490 1489 1489 1488 1488 1487 1486 1486 1486 1485 1485 1484 1484 1483 1483 1483 1482 1481 1481 1481 1480 1479 1479 1479
1520 1521 1521 1521 1521 1521 1522 1522 1521 1521 1521 1521 1521 1521 1521 1521 1520 1520 1520 1519 1519 1519 1518 1518 1517 1516 1516 1515 1515 1514 1513 1513 1512 1511 1511 1510 1510 1509 1508 1507 1506 1506 1505 1505 1504 1504 1503 1502 1502 1501 1501 1501 1500 1500 1499 1499 1499 1498 1498 1498 1497 1497 1496 1496 1496 1495 1495 1494 1494 1493 1493 1492 1492 1491 1491 1490 1490 1489 1489 1488 1488 1487 1487 1486 1486 1485 1485 1484 1484 1483 1483 1482 1482 1481 1481 1481 1480 1479 1479 1478 1478 1477 1477
1520 1520 1520 1521 1521 1521 1521 1521 1521 1521 1521 1521 1521 1520 1520 1520 1520 1519 1519 1519 1518 1518 1517 1517 1516 1516 1515 1514 1514 1513 1512 1512 1511 1511 1510 1509 1509 1508 1507 1506 1506 1505 1504 1504 1504 1503 1502 1502 1501 1501 1500 1500 1499 1499 1499 1498 1498 1498 1497 1497 1497 1496 1496 1496 1495 1495 1494 1493 1493 1492 1492 1491 1491 1490 1490 1489 1489 1488 1488 1487 1487 1486 1486 1485 1485 1484 1483 1483 1482 1482 1481 1481 1480 1480 1479 1479 1478 1478 1477 1476 1476 1475 1475
1519 1520 1520 1521 1521 1521 1521 1521 1521 1520 1520 1520 1520 1520 1519 1519 1519 1519 1518 1518 1517 1517 1517 1516 1516 1515 1514 1514 1513 1512 1512 1511 1511 1510 1509 1509 1508 1507 1507 1506 1505 1505 1504 1503 1503 1502 1502 1501 1501 1500 1499 1499 1498 1498 1498 1497 1497 1497 1497 1496 1496 1496 1495 1495 1494 1494 1493 1493 1492 1491 1491 1490 1490 1489 1489 1488 1488 1487 1487 1486 1486 1485 1484 1484 1483 1483 1482 1481 1481 1480 1480 1479 1479 1478 1478 1477 1476 1476 1475 1475 1474 1473 1473
1519 1520 1520 1520 1520 1520 1520 1520 1520 1520 1520 1519 1519 1519 1519 1519 1518 1518 1518 1517 1517 1516 1516 1516 1515 1515 1514 1513 1512 1512 1511 1511 1510 1510 1509 1508 1507 1507 1506 1505 1505 1504 1503 1503 1502 1502 1501 1501 1500 1499 1499 1498 1498 1497 1497 1497 1496 1496 1496 1496 1495 1495 1495 1494 1494 1493 1493 1492 1491 1491 1490 1489 1489 1488 1488 1487 1487 1486 1486 1485 1484 1484 1483 1482 1482 1481 1481 1480 1479 1479 1478 1478 1477 1477 1476 1476 1475 1474 1473 1473 1472 1471 1471
1519 1519 1519 1519 1520 1520 1520 1520 1519 1519 1519 1519 1519 1518 1518 1518 1518 1517 1517 1516 1516 1516 1515 1515 1514 1514 1513 1512 1512 1511 1511 1510 1509 1509 1508 1508 1507 1506 1506 1505 1504 1503 1503 1502 1501 1501 1501 1500 1499 1499 1498 1498 1497 1497 1496 1496 1496 1496 1496 1495 1495 1494 1494 1494 1493 1492 1492 1491 1491 1490 1489 1488 1488 1487 1487 1486 1486 1485 1484 1484 1483 1482 1482 1481 1480 1480 1479 1478 1478 1477 1477 1476 1476 1475 1475 1474 1473 1472 1472 1471 1471 1470 1469
1518 1518 1518 1519 1519 1519 1519 1519 1519 1518 1518 1518 1518 1518 1518 1517 1517 1517 1516 1516 1515 1515 1514 1514 1513 1513 1512 1512 1511 1511 1510 1509 1509 1508 1508 1507 1506 1506 1505 1504 1504 1503 1502 1501 1501 1501 1500 1499 1499 1498 1498 1497 1497 1496 1496 1496 1496 1496 1495 1495 1494 1494 1493 1493 1492 1492 1491 1490 1490 1489 1488 1487 1487 1486 1486 1485 1484 1484 1483 1482 1482 1481 1480 1480 1479 1478 1477 1477 1476 1476 1475 1475 1474 1473 1473 1472 1471 1471 1470 1469 1469 1468 1467
1517 1518 1518 1518 1518 1518 1518 1518 1518 1518 1518 1518 1518 1517 1517 1517 1516 1516 1516 1515 1515 1514 1513 1513 1512 1512 1511 1511 1511 1510 1509 1509 1508 1508 1507 1507 1506 1506 1505 1504 1503 1502 1502 1501 1501 1500 1499 1499 1498 1498 1497 1497 1496 1496 1496 1496 1496 1495 1495 1494 1494 1493 1492 1492 1491 1491 1490 1490 1489 1488 1487 1486 1486 1485 1484 1484 1483 1482 1481 1481 1480 1480 1479 1478 1477 1477 1476 1476 1475 1474 1474 1473 1472 1472 1471 1471 1470 1469 1468 1468 1467 1466 1466
1517 1517 1517 1517 1517 1517 1517 1517 1517 1517 1517 1517 1517 1517 1516 1516 1516 1515 1515 1514 1514 1513 1513 1512 1511 1511 1511 1510 1510 1509 1509 1508 1507 1507 1506 1506 1506 1505 1505 1504 1503 1502 1501 1501 1500 1499 1499 1498 1498 1497 1497 1497 1496 1496 1496 1496 1495 1495 1494 1494 1493 1492 1491 1491 1491 1490 1489 1489 1488 1487 1486 1486 1485 1484 1483 1482 1482 1481 1480 1479 1479 1478 1477 1476 1476 1475 1475 1474 1473 1472 1472 1471 1471 1470 1469 1469 1468 1467 1466 1466 1465 1465 1464
1516 1517 1517 1517 1517 1517 1517 1517 1517 1517 1517 1517 1516 1516 1516 1515 1515 1514 1514 1513 1513 1512 1512 1511 1511 1510 1510 1509 1509 1508 1508 1507 1507 1506 1506 1506 1505 1505 1504 1503 1503 1502 1501 1500 1500 1499 1498 1497 1497 1497 1497 1496 1496 1496 1496 1496 1495 1495 1494 1493 1492 1491 1491 1490 1490 1489 1489 1488 1487 1486 1486 1485 1484 1483 1482 1481 1481 1480 1479 1478 1477 1476 1476 1475 1474 1474 1473 1472 1471 1471 1470 1470 1469 1468 1467 1467 1466 1465 1465 1464 1463 1463 1462
1516 1516 1516 1516 1516 1516 1516 1516 1516 1516 1516 1516 1516 1515 1515 1515 1514 1514 1513 1513 1512 1512 1511 1511 1510 1510 1509 1509 1508 1508 1507 1507 1506 1506 1506 1505 1505 1504 1504 1503 1502 1501 1501 1500 1499 1498 1498 1497 1497 1497 1496 1496 1496 1496 1496 1495 1495 1494 1494 1493 1492 1491 1490 1490 1489 1489 1488 1487 1486 1486 1485 1484 1483 1482 1481 1480 1479 1478 1477 1476 1476 1475 1474 1473 1473 1472 1471 1471 1470 1469 1468 1468 1467 1466 1466 1465 1464 1463 1463 1462 1461 1461 1460
1515 1515 1515 1516 1516 1516 1516 1516 1516 1516 1516 1515 1515 1515 1514 1514 1514 1513 1513 1512 1512 1511 1511 1510 1510 1509 1509 1508 1508 1507 1507 1506 1506 1505 1505 1504 1504 1503 1503 1503 1502 1501 1500 1500 1499 1498 1497 1497 1497 1497 1496 1496 1496 1496 1495 1495 1494 1493 1493 1492 1491 1491 1490 1489 1489 1488 1487 1486 1486 1485 1484 1483 1482 1481 1480 1479 1478 1477 1476 1475 1474 1473 1472 1471 1471 1470 1469 1469 1468 1467 1466 1466 1465 1464 1464 1463 1462 1461 1461 1460 1459 1459 1458
1514 1515 1515 1515 1516 1516 1516 1515 1515 1515 1515 1515 1514 1514 1514 1513 1513 1512 1512 1511 1511 1511 1510 1509 1509 1509 1508 1508 1507 1506 1506 1506 1505 1505 1504 1503 1503 1502 1502 1501 1501 1501 1500 1499 1498 1498 1497 1497 1497 1496 1496 1496 1496 1495 1495 1494 1493 1493 1492 1491 1491 1490 1489 1488 1487 1487 1486 1485 1484 1484 1483 1482 1481 1480 1479 1478 1477 1476 1475 1474 1473 1472 1471 1470 1469 1468 1467 1467 1466 1466 1465 1464 1463 1462 1462 1461 1461 1460 1459 1458 1457 1457 1456
1514 1514 1515 1515 1515 1515 1515 1515 1515 1514 1514 1514 1514 1513 1513 1513 1512 1512 1511 1511 1510 1510 1509 1509 1508 1508 1507 1507 1506 1506 1506 1505 1504 1504 1503 1502 1502 1501 1501 1501 1501 1501 1500 1500 1498 1497 1497 1497 1497 1496 1496 1496 1495 1494 1494 1493 1492 1491 1491 1490 1489 1488 1487 1487 1486 1485 1484 1484 1483 1482 1481 1481 1480 1479 1478 1477 1476 1475 1474 1473 1472 1471 1470 1469 1468 1467 1466 1465 1464 1464 1463 1462 1461 1461 1460 1459 1459 1458 1457 1456 1456 1455 1454
1513 1514 1514 1514 1514 1514 1514 1514 1514 1514 1513 1513 1513 1513 1512 1512 1512 1511 1511 1510 1510 1509 1509 1508 1508 1507 1506 1506 1506 1506 1505 1504 1504 1503 1503 1502 1501 1501 1500 1500 1500 1500 1499 1499 1498 1498 1497 1497 1497 1496 1496 1495 1494 1493 1492 1491 1491 1490 1489 1488 1487 1486 1486 1485 1484 1483 1482 1481 1481 1480 1479 1479 1478 1477 1476 1476 1475 1474 1472 1471 1470 1469 1468 1467 1466 1465 1464 1463 1463 1462 1461 1461 1460 1459 1458 1458 1457 1456 1456 1455 1454 1453 1453
1513 1513 1513 1514 1514 1514 1513 1513 1513 1513 1513 1512 1512 1512 1512 1511 1511 1511 1510 1510 1510 1509 1509 1508 1507 1507 1506 1505 1505 1505 1504 1504 1503 1503 1502 1502 1501 1500 1500 1500 1501 1500 1499 1499 1499 1499 1498 1497 1496 1496 1495 1493 1492 1491 1490 1489 1488 1487 1486 1486 1485 1484 1483 1483 1482 1481 1480 1479 1478 1478 1477 1476 1476 1475 1475 1474 1473 1472 1471 1470 1469 1467 1466 1465 1464 1463 1462 1461 1461 1460 1459 1459 1458 1457 1456 1456 1455 1455 1454 1453 1452 1452 1451
1512 1513 1513 1513 1513 1513 1513 1513 1513 1512 1512 1512 1512 1511 1511 1511 1511 1510 1510 1510 1509 1509 1508 1508 1507 1507 1506 1505 1504 1504 1504 1503 1503 1502 1501 1501 1501 1501 1500 1501 1501 1500 1499 1499 1499 1498 1498 1497 1495 1494 1492 1491 1491 1490 1488 1488 1487 1486 1485 1484 1483 1483 1482 1481 1480 1479 1478 1477 1476 1475 1475 1474 1473 1473 1472 1471 1471 1470 1469 1468 1467 1466 1465 1464 1462 1461 1461 1460 1459 1458 1457 1456 1456 1455 1455 1454 1453 1452 1452 1451 1450 1450 1449
1512 1512 1512 1512 1512 1512 1512 1512 1512 1512 1511 1511 1511 1511 1511 1511 1511 1510 1510 1509 1509 1509 1508 1507 1507 1506 1506 1505 1504 1503 1503 1502 1502 1501 1501 1501 1500 1500 1500 1500 1500 1499 1499 1498 1498 1498 1497 1496 1494 1492 1492 1491 1490 1489 1488 1487 1486 1485 1484 1483 1482 1481 1480 1479 1478 1477 1476 1475 1474 1473 1472 1472 1471 1471 1470 1469 1469 1468 1467 1466 1465 1464 1463 1462 1461 1460 1459 1458 1457 1456 1455 1455 1454 1453 1452 1452 1451 1450 1450 1449 1448 1447 1446
1511 1511 1512 1512 1512 1512 1512 1511 1511 1511 1511 1511 1511 1511 1511 1510 1510 1510 1509 1509 1509 1508 1508 1507 1507 1506 1506 1505 1504 1503 1502 1501 1501 1501 1501 1500 1500 1500 1500 1500 1500 1500 1499 1499 1499 1498 1498 1496 1493 1492 1492 1491 1490 1489 1488 1487 1486 1484 1483 1482 1481 1480 1479 1478 1477 1476 1474 1473 1472 1471 1470 1470 1469 1468 1468 1467 1466 1466 1465 1464 1463 1462 1461 1460 1459 1458 1457 1456 1456 1455 1454 1453 1452 1451 1450 1450 1449 1448 1447 1446 1446 1445 1444
1511 1511 1511 1511 1511 1511 1511 1511 1511 1511 1511 1511 1510 1510 1510 1510 1509 1509 1509 1508 1508 1508 1507 1507 1506 1506 1505 1505 1504 1503 1502 1501 1501 1500 1500 1500 1499 1499 1499 1499 1500 1500 1500 1500 1499 1498 1496 1495 1494 1493 1491 1490 1489 1488 1487 1485 1484 1483 1482 1481 1480 1479 1477 1476 1475 1474 1473 1471 1470 1469 1468 1468 1467 1466 1465 1465 1464 1463 1462 1462 1461 1460 1459 1458 1458 1457 1456 1455 1454 1453 1452 1451 1450 1449 1448 1447 1447 1446 1445 1444 1443 1443 1442
1510 1510 1511 1511 1511 1511 1511 1511 1510 1510 1510 1510 1510 1510 1509 1509 1509 1509 1508 1508 1507 1507 1506 1506 1506 1505 1505 1504 1504 1503 1503 1502 1501 1499 1499 1498 1498 1498 1498 1498 1498 1498 1498 1498 1498 1497 1495 1494 1494 1493 1490 1488 1487 1487 1486 1485 1484 1483 1482 1481 1480 1478 1476 1475 1474 1473 1471 1470 1469 1468 1467 1466 1465 1464 1463 1462 1462 1461 1461 1460 1459 1458 1457 1456 1456 1455 1454 1453 1452 1451 1450 1449 1448 1447 1446 1445 1445 1444 1443 1442 1441 1441 1440
1509 1510 1510 1510 1510 1510 1510 1510 1510 1510 1510 1509 1509 1509 1509 1508 1508 1508 1508 1507 1507 1506 1506 1506 1505 1505 1504 1504 1503 1503 1502 1501 1501 1500 1498 1498 1497 1497 1497 1496 1496 1496 1496 1496 1496 1495 1495 1495 1494 1492 1491 1488 1485 1484 1484 1484 1483 1482 1481 1481 1480 1478 1476 1475 1473 1472 1471 1469 1468 1466 1465 1464 1463 1462 1461 1460 1460 1459 1458 1458 1457 1456 1455 1455 1454 1453 1452 1451 1450 1449 1448 1447 1446 1445 1444 1443 1442 1441 1441 1440 1439 1438 1437
1509 1509 1509 1510 1510 1510 1510 1509 1509 1509 1509 1509 1509 1508 1508 1508 1508 1507 1507 1507 1506 1506 1506 1505 1505 1504 1504 1503 1503 1502 1502 1501 1501 1500 1499 1498 1497 1496 1496 1496 1496 1495 1495 1494 1494 1493 1493 1493 1493 1492 1491 1489 1486 1483 1481 1481 1481 1481 1480 1479 1478 1477 1476 1474 1473 1472 1470 1469 1467 1466 1464 1463 1462 1461 1460 1458 1457 1457 1456 1455 1455 1454 1453 1452 1451 1451 1450 1449 1448 1446 1446 1445 1443 1442 1441 1441 1440 1439 1438 1437 1436 1436 1435
1508 1508 1509 1509 1509 1509 1509 1509 1509 1508 1508 1508 1508 1508 1508 1507 1507 1507 1506 1506 1506 1505 1505 1505 1504 1504 1503 1503 1502 1502 1501 1501 1500 1499 1499 1498 1497 1496 1496 1496 1495 1495 1494 1493 1493 1492 1491 1491 1491 1490 1490 1489 1487 1484 1481 1480 1479 1479 1479 1478 1477 1476 1474 1473 1472 1471 1470 1468 1467 1466 1464 1462 1461 1460 1459 1457 1456 1455 1454 1453 1452 1451 1451 1450 1449 1448 1447 1446 1446 1445 1444 1443 1441 1440 1439 1438 1437 1436 1436 1435 1434 1433 1432